TimeEDT,TemperatureF,Dew PointF,Humidity,Sea Level PressureIn,VisibilityMPH,Wind Direction,Wind SpeedMPH,Gust SpeedMPH,PrecipitationIn,Events,Conditions,WindDirDegrees,DateUTC
12:56 AM,54.0,48.9,83,30.09,10.0,East,8.1,-,N/A,,Clear,80,2013-10-16 04:56:00
1:56 AM,53.1,48.0,83,30.08,10.0,NE,3.5,-,N/A,,Clear,50,2013-10-16 05:56:00
2:56 AM,55.0,50.0,83,30.09,10.0,NNE,4.6,-,N/A,,Mostly Cloudy,20,2013-10-16 06:56:00
3:36 AM,55.4,48.2,77,30.08,10.0,NNE,4.6,-,N/A,,Overcast,20,2013-10-16 07:36:00
3:56 AM,55.9,50.0,80,30.09,10.0,NNW,4.6,-,N/A,,Overcast,340,2013-10-16 07:56:00
4:56 AM,57.0,51.1,81,30.07,10.0,NE,3.5,-,N/A,,Overcast,50,2013-10-16 08:56:00
5:35 AM,57.2,50.0,77,30.06,10.0,NE,5.8,-,N/A,,Overcast,50,2013-10-16 09:35:00
5:56 AM,57.9,48.9,72,30.06,10.0,NNE,3.5,-,N/A,,Overcast,20,2013-10-16 09:56:00
6:56 AM,57.9,51.1,78,30.07,10.0,NE,3.5,-,N/A,,Overcast,40,2013-10-16 10:56:00
7:56 AM,59.0,54.0,83,30.07,10.0,NNE,5.8,-,N/A,,Overcast,30,2013-10-16 11:56:00
8:33 AM,60.8,53.6,77,30.05,10.0,NE,6.9,-,N/A,,Overcast,40,2013-10-16 12:33:00
8:56 AM,61.0,54.0,78,30.05,10.0,ENE,8.1,-,N/A,,Overcast,70,2013-10-16 12:56:00
9:56 AM,64.0,55.0,73,30.06,10.0,Variable,5.8,-,N/A,,Overcast,0,2013-10-16 13:56:00
10:29 AM,64.4,55.4,73,30.05,10.0,Calm,Calm,-,N/A,,Overcast,0,2013-10-16 14:29:00
10:56 AM,64.9,54.0,68,30.03,10.0,ENE,5.8,-,N/A,,Overcast,70,2013-10-16 14:56:00
11:56 AM,66.9,55.9,68,30.03,10.0,East,3.5,-,N/A,,Overcast,100,2013-10-16 15:56:00
12:56 PM,70.0,57.0,63,30.00,10.0,SSE,4.6,-,N/A,,Overcast,150,2013-10-16 16:56:00
1:56 PM,68.0,57.0,68,29.97,10.0,SE,5.8,-,N/A,,Overcast,140,2013-10-16 17:56:00
2:56 PM,66.9,55.9,68,29.97,10.0,NNW,5.8,-,N/A,,Overcast,340,2013-10-16 18:56:00
3:56 PM,64.9,57.0,75,29.96,10.0,SSE,4.6,-,N/A,,Overcast,160,2013-10-16 19:56:00
4:56 PM,64.0,57.0,78,29.96,10.0,SSE,5.8,-,N/A,,Overcast,150,2013-10-16 20:56:00
5:56 PM,62.1,57.0,84,29.96,10.0,SSE,4.6,-,N/A,,Overcast,160,2013-10-16 21:56:00
6:20 PM,62.6,57.2,82,29.96,10.0,SW,4.6,-,N/A,,Overcast,220,2013-10-16 22:20:00
6:56 PM,62.1,57.0,84,29.95,10.0,Calm,Calm,-,N/A,,Overcast,0,2013-10-16 22:56:00
7:56 PM,62.1,57.0,84,29.93,10.0,ESE,5.8,-,N/A,,Overcast,120,2013-10-16 23:56:00
8:56 PM,60.1,57.9,93,29.95,10.0,Calm,Calm,-,N/A,,Overcast,0,2013-10-17 00:56:00
9:56 PM,61.0,57.9,90,29.95,10.0,South,3.5,-,N/A,,Overcast,190,2013-10-17 01:56:00
10:56 PM,61.0,57.9,90,29.94,10.0,South,5.8,-,N/A,,Overcast,170,2013-10-17 02:56:00
11:56 PM,61.0,57.9,90,29.91,10.0,South,4.6,-,N/A,,Overcast,180,2013-10-17 03:56:00